Tracking 22881 objects as of 19-Apr-2021
HD Live streaming from Space Station
objects crossing your sky now

METEOR 2-17 DEB

Track METEOR 2-17 DEB now!
10-day predictions


NORAD ID: 35368
Int'l Code: 1988-005AC
Perigee: 891.7 km
Apogee: 925.0 km
Inclination: 82.6 °
Period: 103.0 minutes
Semi major axis: 7279 km
RCS: 0.0006 m2 (small)
Launch date: January 30, 1988
Source: Commonwealth of Independent States (former USSR) (CIS)
Launch site: PLESETSK MISSILE AND SPACE COMPLEX (PKMTR)

Note: This is SATELLITE DEBRIS
aabbcc
Your satellite tracking list
Your tracking list is empty




NASA's NSSDC Master Catalog

Two Line Element Set (TLE):
1 35368U 88005AC  21108.94687311  .00000904  00000-0  62667-3 0  9990
2 35368  82.5674 349.0249 0022887 152.2337 208.0059 13.97853539714290
Source of the keplerian elements: AFSPC